Precipitable_Water
0.37 0.37 0.37 0.37 0.36 0.36 0.37 0.37 0.37 0.38 0.39 0.40 0.41 0.40 0.41 0.43 0.44 0.46 0.48 0.54 0.65 1.01 1.38 1.47 1.43 1.39 1.39 1.38 1.46 1.51 1.52 1.51 1.40 1.37 1.51 1.53 1.50 1.55 1.63 1.64 1.63 1.66 1.52
0.36 0.35 0.35 0.34 0.34 0.35 0.35 0.35 0.35 0.36 0.37 0.38 0.38 0.40 0.40 0.40 0.41 0.42 0.45 0.46 0.53 0.61 0.90 1.39 1.45 1.42 1.40 1.45 1.48 1.54 1.55 1.55 1.46 1.35 1.46 1.57 1.46 1.49 1.57 1.64 1.64 1.61 1.58
0.36 0.36 0.35 0.33 0.33 0.35 0.35 0.35 0.35 0.36 0.36 0.37 0.37 0.39 0.40 0.40 0.40 0.41 0.42 0.45 0.48 0.53 0.60 0.92 1.37 1.42 1.41 1.43 1.51 1.58 1.59 1.59 1.56 1.44 1.40 1.53 1.48 1.47 1.48 1.62 1.60 1.54 1.58
0.36 0.35 0.35 0.33 0.34 0.35 0.35 0.35 0.35 0.34 0.35 0.35 0.36 0.38 0.39 0.40 0.40 0.39 0.41 0.42 0.43 0.47 0.53 0.62 0.98 1.33 1.43 1.42 1.49 1.60 1.57 1.57 1.65 1.49 1.40 1.47 1.48 1.48 1.45 1.51 1.54 1.55 1.54
0.35 0.34 0.35 0.33 0.34 0.34 0.34 0.35 0.35 0.36 0.34 0.35 0.36 0.38 0.39 0.40 0.41 0.43 0.41 0.41 0.43 0.44 0.48 0.55 0.70 1.05 1.36 1.45 1.46 1.53 1.62 1.54 1.59 1.59 1.45 1.41 1.45 1.47 1.46 1.48 1.47 1.49 1.47
0.34 0.33 0.34 0.33 0.34 0.33 0.33 0.34 0.34 0.37 0.38 0.37 0.37 0.37 0.40 0.42 0.45 0.47 0.48 0.49 0.47 0.47 0.50 0.54 0.61 0.74 1.06 1.33 1.47 1.51 1.59 1.53 1.58 1.61 1.52 1.41 1.41 1.42 1.46 1.50 1.52 1.47 1.38
0.32 0.32 0.33 0.33 0.34 0.33 0.33 0.34 0.35 0.35 0.37 0.40 0.37 0.37 0.41 0.43 0.48 0.49 0.52 0.55 0.56 0.55 0.54 0.53 0.55 0.66 0.81 1.09 1.37 1.47 1.56 1.56 1.55 1.60 1.60 1.46 1.39 1.41 1.42 1.46 1.50 1.51 1.50
0.30 0.30 0.31 0.33 0.34 0.34 0.34 0.34 0.35 0.34 0.39 0.43 0.37 0.38 0.32 0.38 0.46 0.47 0.53 0.53 0.54 0.54 0.55 0.56 0.57 0.66 0.72 0.83 1.11 1.39 1.51 1.54 1.58 1.63 1.61 1.54 1.40 1.38 1.41 1.43 1.46 1.52 1.57
0.28 0.28 0.30 0.32 0.34 0.35 0.33 0.34 0.35 0.36 0.37 0.44 0.47 0.41 0.33 0.31 0.38 0.46 0.47 0.51 0.53 0.55 0.55 0.58 0.58 0.61 0.75 0.81 0.94 1.11 1.35 1.55 1.56 1.63 1.64 1.63 1.45 1.33 1.39 1.41 1.41 1.47 1.54
0.24 0.25 0.27 0.29 0.32 0.34 0.33 0.35 0.37 0.40 0.41 0.42 0.47 0.51 0.49 0.46 0.37 0.34 0.47 0.49 0.53 0.53 0.57 0.56 0.57 0.57 0.63 0.72 0.87 0.97 1.07 1.32 1.50 1.53 1.59 1.65 1.58 1.44 1.35 1.37 1.36 1.37 1.40
0.22 0.23 0.25 0.27 0.29 0.33 0.34 0.36 0.38 0.40 0.43 0.42 0.43 0.45 0.48 0.49 0.50 0.42 0.36 0.42 0.50 0.53 0.56 0.58 0.58 0.59 0.61 0.72 0.78 0.89 1.03 1.08 1.28 1.52 1.59 1.56 1.55 1.59 1.42 1.37 1.38 1.35 1.32
0.20 0.22 0.24 0.25 0.27 0.31 0.33 0.35 0.38 0.40 0.41 0.43 0.44 0.45 0.45 0.42 0.42 0.42 0.39 0.41 0.42 0.49 0.55 0.57 0.60 0.60 0.62 0.64 0.70 0.82 0.93 1.05 1.10 1.26 1.37 1.50 1.56 1.68 1.62 1.43 1.39 1.37 1.33
0.20 0.20 0.20 0.21 0.22 0.26 0.29 0.32 0.34 0.39 0.40 0.41 0.41 0.42 0.45 0.45 0.46 0.45 0.42 0.42 0.41 0.45 0.48 0.55 0.57 0.63 0.65 0.69 0.73 0.74 0.78 0.90 1.05 1.05 1.13 1.11 1.34 1.50 1.67 1.52 1.44 1.39 1.38
0.23 0.22 0.19 0.17 0.19 0.22 0.22 0.26 0.29 0.33 0.38 0.40 0.41 0.42 0.42 0.44 0.45 0.45 0.43 0.40 0.37 0.42 0.46 0.47 0.56 0.59 0.66 0.72 0.76 0.84 0.85 0.91 0.94 1.01 1.02 1.07 1.14 1.28 1.35 1.68 1.58 1.49 1.39
0.24 0.22 0.19 0.16 0.15 0.15 0.17 0.19 0.21 0.25 0.29 0.30 0.34 0.37 0.40 0.42 0.44 0.45 0.46 0.45 0.40 0.33 0.37 0.49 0.50 0.62 0.63 0.70 0.79 0.83 0.87 0.87 0.91 0.94 1.01 1.07 1.17 1.18 1.27 1.44 1.42 1.42 1.50
0.23 0.21 0.19 0.17 0.15 0.15 0.14 0.14 0.15 0.17 0.19 0.23 0.25 0.28 0.35 0.40 0.41 0.43 0.44 0.46 0.46 0.42 0.37 0.49 0.51 0.55 0.63 0.69 0.77 0.82 0.87 0.86 0.92 0.95 0.97 1.07 1.15 1.17 1.14 1.23 1.24 1.24 1.45
0.22 0.21 0.19 0.18 0.16 0.15 0.15 0.14 0.15 0.15 0.15 0.15 0.17 0.18 0.20 0.27 0.33 0.39 0.42 0.44 0.45 0.46 0.42 0.47 0.52 0.59 0.60 0.62 0.69 0.78 0.84 0.84 0.87 0.91 0.98 0.99 1.02 1.11 1.18 1.26 1.28 1.36 1.34
0.21 0.20 0.19 0.18 0.17 0.16 0.17 0.15 0.14 0.15 0.14 0.14 0.15 0.15 0.15 0.18 0.22 0.32 0.38 0.39 0.42 0.45 0.44 0.42 0.48 0.53 0.54 0.59 0.64 0.71 0.80 0.86 0.88 0.87 0.91 0.94 0.95 0.96 1.02 1.16 1.24 1.22 1.29
0.21 0.20 0.19 0.19 0.19 0.18 0.17 0.17 0.16 0.15 0.15 0.14 0.14 0.15 0.15 0.15 0.16 0.20 0.27 0.34 0.38 0.43 0.44 0.43 0.45 0.51 0.53 0.56 0.60 0.68 0.72 0.76 0.85 0.85 0.88 0.90 0.93 0.93 0.99 1.10 1.13 1.21 1.23
0.21 0.20 0.21 0.21 0.21 0.20 0.19 0.18 0.17 0.16 0.15 0.14 0.14 0.15 0.15 0.15 0.15 0.17 0.18 0.21 0.27 0.36 0.42 0.44 0.46 0.49 0.50 0.54 0.58 0.61 0.66 0.70 0.79 0.78 0.78 0.83 0.85 0.89 0.92 0.97 1.07 1.17 1.18
0.21 0.21 0.21 0.21 0.21 0.21 0.20 0.17 0.17 0.16 0.16 0.15 0.14 0.14 0.15 0.14 0.15 0.16 0.17 0.19 0.20 0.26 0.35 0.41 0.43 0.46 0.48 0.53 0.52 0.57 0.62 0.65 0.69 0.70 0.74 0.78 0.79 0.79 0.86 0.90 1.04 1.05 1.06
0.20 0.20 0.21 0.20 0.20 0.22 0.21 0.20 0.18 0.17 0.16 0.16 0.13 0.14 0.15 0.14 0.12 0.14 0.15 0.18 0.21 0.20 0.24 0.34 0.41 0.43 0.45 0.51 0.53 0.57 0.60 0.62 0.62 0.73 0.77 0.66 0.76 0.74 0.78 0.81 0.83 0.88 0.97
0.20 0.20 0.20 0.21 0.21 0.21 0.21 0.20 0.19 0.17 0.17 0.17 0.16 0.14 0.14 0.14 0.14 0.13 0.12 0.14 0.17 0.21 0.22 0.28 0.32 0.41 0.45 0.47 0.50 0.50 0.56 0.58 0.57 0.62 0.61 0.67 0.72 0.71 0.74 0.78 0.80 0.84 0.88
0.21 0.18 0.19 0.21 0.21 0.23 0.22 0.21 0.20 0.19 0.17 0.17 0.18 0.17 0.15 0.14 0.14 0.13 0.12 0.12 0.12 0.16 0.18 0.23 0.27 0.32 0.41 0.47 0.49 0.51 0.51 0.54 0.58 0.60 0.61 0.59 0.63 0.67 0.71 0.76 0.75 0.79 0.79
0.20 0.18 0.18 0.19 0.19 0.21 0.23 0.22 0.20 0.19 0.17 0.16 0.17 0.19 0.17 0.15 0.15 0.13 0.12 0.11 0.12 0.14 0.15 0.18 0.22 0.25 0.31 0.35 0.44 0.47 0.47 0.47 0.47 0.50 0.53 0.57 0.57 0.61 0.63 0.67 0.70 0.73 0.73
0.21 0.19 0.17 0.18 0.19 0.20 0.23 0.23 0.21 0.19 0.17 0.16 0.17 0.17 0.18 0.17 0.16 0.14 0.12 0.11 0.10 0.12 0.15 0.14 0.14 0.17 0.20 0.27 0.28 0.33 0.38 0.42 0.42 0.43 0.47 0.47 0.51 0.52 0.53 0.58 0.62 0.63 0.62
Wind_Speed
31 32 33 33 34 35 36 36 37 37 38 38 39 41 41 42 43 43 42 42 41 40 39 39 37 35 34 33 32 32 32 31 29 27 27 25 24 24 29 30 32 32 32
32 33 33 34 35 36 36 37 37 37 38 39 40 41 42 43 44 45 45 45 44 43 42 41 40 39 37 36 35 34 33 33 32 30 29 28 26 24 29 31 33 34 34
32 33 34 35 36 36 37 37 37 38 39 39 40 41 42 43 44 45 46 46 46 46 44 43 42 41 40 38 37 37 35 35 35 33 31 30 30 28 27 30 32 34 34
33 34 34 35 36 37 37 37 38 38 39 40 41 42 42 43 44 45 46 47 48 47 47 45 43 42 42 41 40 39 37 36 35 35 34 33 33 32 30 29 31 32 34
33 34 34 35 36 36 36 37 38 39 40 41 41 42 42 43 43 43 44 45 47 48 48 48 46 44 42 42 42 42 41 38 37 36 37 36 36 35 34 33 32 32 32
34 34 34 35 36 35 36 36 37 37 38 39 40 40 40 39 38 39 40 42 44 46 47 48 48 46 45 43 43 44 43 42 38 38 38 39 38 38 36 36 35 35 34
33 34 34 35 35 35 35 35 35 35 35 35 35 35 31 32 31 32 34 36 38 40 43 46 48 48 47 45 44 44 45 44 42 40 38 40 40 40 39 38 38 37 35
33 33 33 34 34 33 33 32 32 31 30 30 28 27 24 23 25 30 29 30 33 37 40 42 44 46 48 47 46 45 46 47 44 43 41 42 43 42 42 40 40 40 39
32 32 32 32 31 31 30 30 28 27 26 24 22 20 20 20 25 22 25 26 30 32 36 39 41 43 45 46 48 47 47 47 49 46 46 44 45 44 43 43 41 41 41
31 31 31 30 30 29 28 27 25 23 22 20 20 19 20 22 19 20 22 26 25 29 32 36 40 42 44 45 46 48 48 47 48 49 48 44 45 46 45 45 44 43 42
30 30 29 28 28 27 25 24 21 20 19 19 19 19 19 19 19 19 22 23 25 26 29 33 37 40 43 45 46 46 48 49 48 49 49 47 45 46 47 47 47 45 44
28 28 27 26 25 24 23 21 19 19 18 18 18 18 18 17 20 20 22 23 25 24 26 29 33 37 40 43 46 47 46 49 50 50 52 48 50 48 49 49 48 48 46
27 26 26 25 23 22 21 19 18 17 17 17 18 18 19 19 21 20 22 22 23 25 25 27 30 34 37 40 43 46 47 48 49 51 51 54 51 53 46 50 49 48 48
25 25 24 23 21 20 19 17 16 16 17 17 18 19 19 20 21 21 21 22 22 21 24 25 27 30 33 36 41 44 46 48 50 50 50 52 51 50 53 46 48 47 48
23 23 21 20 19 18 17 15 15 16 17 17 18 19 19 20 21 22 22 21 21 20 20 21 24 26 31 34 37 42 44 44 48 49 50 49 49 49 50 47 46 47 51
20 19 18 17 16 16 15 14 14 15 16 18 19 20 20 21 21 22 21 21 20 20 21 21 24 26 29 31 33 36 40 41 43 45 47 49 49 47 47 47 48 43 48
18 17 16 14 14 14 14 14 14 16 17 18 19 20 21 21 21 22 21 21 21 20 21 22 21 21 23 26 29 31 34 37 38 39 41 44 46 47 46 45 47 45 47
16 15 14 13 13 13 13 14 15 17 18 18 19 20 21 20 21 22 21 21 21 20 20 20 19 21 22 23 26 29 29 31 34 33 34 37 40 42 42 41 42 42 46
14 13 13 12 13 13 14 14 15 17 18 18 19 20 21 21 21 22 22 22 21 20 19 18 18 18 20 22 25 27 29 31 31 31 31 31 34 37 37 39 40 39 39
13 12 12 12 13 13 14 15 16 17 18 18 19 20 21 21 22 22 22 22 22 21 19 17 16 17 18 21 24 25 28 24 26 30 33 32 31 32 33 35 36 35 37
12 11 12 12 12 13 14 15 16 17 18 19 20 21 21 22 22 22 22 22 22 20 19 17 15 15 17 18 24 27 29 26 25 27 28 30 31 32 32 33 31 33 35
11 11 12 12 13 14 15 16 17 18 19 20 21 22 22 23 23 22 22 21 20 20 18 16 14 13 13 15 17 23 23 29 26 18 19 25 29 30 30 31 33 33 34
11 11 12 13 14 15 17 17 18 19 20 21 22 22 23 23 23 22 22 20 19 19 16 14 13 11 11 10 11 18 23 21 24 24 25 18 19 24 28 30 29 29 30
11 12 13 14 15 16 17 18 19 20 21 22 22 23 23 23 23 22 21 19 18 17 16 13 11 10 9 7 7 10 17 21 18 19 19 21 22 19 19 23 26 25 27
11 12 13 14 15 17 19 19 20 20 21 22 22 22 22 22 22 22 20 19 17 16 15 12 10 9 9 7 5 8 11 17 21 20 21 21 22 24 19 19 22 22 24
11 12 14 15 16 18 20 20 20 21 22 22 23 22 23 22 22 21 19 18 17 16 14 13 11 9 8 8 6 5 7 10 18 20 22 24 25 27 26 22 22 22 23
Wind_Direction
302 302 300 299 298 296 293 291 288 285 282 279 276 273 270 268 265 262 260 258 257 255 255 252 251 250 248 246 244 243 241 239 239 239 236 235 233 229 217 216 214 213 212
303 302 302 301 299 298 295 292 290 287 284 281 278 274 271 268 265 262 259 257 255 254 253 252 250 249 247 246 244 243 241 238 238 237 235 234 231 227 220 220 217 216 214
305 304 303 302 301 299 296 294 291 289 286 284 281 277 273 269 266 263 259 257 255 253 252 251 249 248 246 245 244 243 241 238 237 236 234 233 228 226 223 219 217 218 217
308 306 305 304 303 301 298 296 294 291 288 285 283 280 276 271 267 264 260 257 253 251 249 249 248 247 245 244 243 242 241 238 235 234 233 231 227 225 222 219 218 218 219
309 309 307 307 306 303 300 298 296 293 291 288 285 282 278 273 268 264 260 256 253 250 248 247 246 246 245 244 243 242 239 238 237 235 232 230 227 225 224 222 220 219 217
310 310 309 309 308 306 304 301 299 298 294 292 290 285 281 274 268 263 260 256 252 249 247 245 245 244 243 243 242 240 238 237 237 235 232 229 227 225 225 224 223 221 223
311 311 311 311 311 309 307 305 303 302 299 297 292 290 282 276 265 268 262 259 252 249 247 245 244 243 242 242 241 240 238 237 237 235 233 230 228 226 225 225 224 223 223
312 312 313 313 313 313 310 308 306 304 302 303 298 293 286 280 274 273 262 260 257 253 248 246 243 242 241 241 240 240 239 236 237 235 233 231 229 227 226 226 225 225 224
312 313 314 315 315 315 313 311 309 310 306 307 306 297 292 284 289 269 270 262 263 254 250 247 244 243 241 240 239 239 239 238 238 238 235 233 229 227 227 226 226 226 226
312 314 314 316 317 318 317 315 313 314 313 310 310 306 300 291 289 280 270 272 264 260 253 249 246 244 242 241 240 239 239 239 239 237 236 236 230 229 228 227 227 227 227
312 313 314 316 317 319 320 319 317 317 317 314 312 312 310 303 291 288 282 276 271 263 259 253 248 245 242 241 240 240 239 239 239 238 234 233 230 230 229 228 227 227 228
310 313 314 315 317 320 322 323 322 323 323 321 318 316 314 312 306 296 289 283 276 269 265 259 251 247 244 242 241 240 240 239 238 239 240 232 232 234 230 229 228 228 229
309 311 314 314 315 318 321 324 327 330 329 327 324 320 316 312 310 306 296 289 280 274 267 264 257 249 245 243 242 240 240 240 239 239 239 238 242 235 232 230 229 229 229
310 309 311 314 315 317 318 319 324 331 335 334 332 329 322 318 315 311 305 297 289 277 273 267 264 251 245 244 243 241 240 240 238 238 238 238 239 240 236 232 229 230 231
312 310 310 312 316 319 320 318 320 326 329 332 334 334 332 326 321 316 311 306 293 283 279 274 265 253 251 248 245 243 241 240 238 238 238 239 238 237 235 238 237 233 233
318 317 314 313 316 320 322 321 323 326 328 332 330 331 332 333 331 324 315 310 305 291 280 279 273 265 255 249 248 243 238 238 238 238 237 237 237 236 238 239 239 238 232
322 322 320 320 324 325 326 325 325 329 330 330 332 332 332 332 334 333 327 318 309 304 290 284 275 270 258 253 246 241 239 236 236 236 236 235 235 236 237 240 238 238 236
324 327 327 328 329 332 331 332 330 332 333 331 332 333 333 332 332 335 334 329 319 311 303 293 278 272 263 256 247 240 237 234 232 233 232 232 232 232 233 234 238 240 240
328 330 332 334 334 334 336 335 335 334 335 334 333 333 333 333 332 331 333 332 329 320 310 300 286 278 266 259 248 240 236 237 232 231 230 230 230 231 232 235 236 240 238
331 332 333 334 335 335 338 338 338 338 339 339 338 335 335 333 332 332 332 332 329 328 320 308 296 282 276 262 247 239 232 234 229 231 230 230 230 231 232 234 235 236 238
333 337 339 340 341 343 343 343 344 344 343 342 341 339 337 336 333 332 329 330 332 327 326 318 308 295 288 272 248 238 229 229 232 233 230 228 230 231 232 232 233 237 241
331 335 339 340 342 341 341 342 341 340 340 341 340 339 338 337 336 334 332 330 332 332 327 325 316 313 301 277 258 231 228 226 226 216 220 228 230 231 233 235 237 239 241
328 332 335 336 337 337 340 339 339 337 337 337 337 337 335 335 335 334 333 331 330 333 332 326 324 319 319 292 256 230 226 222 227 232 227 227 226 227 232 234 239 240 243
322 326 329 331 333 333 335 335 335 334 335 335 335 336 335 334 333 332 331 332 330 331 331 327 327 326 317 307 259 234 224 220 221 218 226 225 229 226 232 232 235 243 241
317 323 326 328 331 332 334 332 331 331 332 334 334 333 334 334 334 333 329 328 329 330 334 330 328 325 332 323 296 238 236 229 232 232 236 235 234 235 241 242 238 244 247
314 320 324 326 328 328 331 332 330 329 330 330 330 330 332 332 332 333 331 328 326 324 325 328 323 321 319 325 306 279 249 240 236 237 245 241 244 241 240 245 248 250 251